COSMOS 2251 DEB

Satellite information

Favourite Embed

Satellite Type and Status

DEBRISIN ORBIT

Key statistics

Satellite COSMOS 2251 DEB at a glance.

Uptime

11869

Days in orbit

Revolutions

≈ 14.6

Per day

Orbit

LEO

Low Earth Orbit

Inclination

74.0

Latest

Satellite identification and parameters

Extended collection of information and parameters for COSMOS 2251 DEB.

Object identification

Identified? True

Debris? True

Object name: COSMOS 2251 DEB

International designator: 1993-036APK

Object number (NORAD): 35668

Object ID (CCSDS): 35668

Country: COMMONWEALTH OF INDEPENDENT STATES (CIS)

Current information (Y/N): Y

RCS size: SMALL

Orbital parameters

Period: 98.362 minutes

Inclination: 74.0449 deg

SMA: 7058.499 km

Apoapsis: 739.082 km

Periapsis: 621.645 km

RAAN: 224.9926 deg

Eccentricy: 0.00831886

Argument of periapsis: 330.6481 deg

Mean anomaly: 29.0026 deg

Mean motion: 14.63977041 rev/day

Mean motion (dot): 0.00002154 rev/day2

B* drag term: 0.00039699898 1/REarth

Two-line elements (TLE)

Creation date: Dec. 10, 2025, 7:58 p.m.

Reference frame: TEME

Reference center: EARTH

Epoch: Dec. 10, 2025, 9:50 a.m. UTC

TLE line 0: 0 COSMOS 2251 DEB

TLE line 1: 1 35668U 93036APK 25344.41026324 .00002154 00000-0 39700-3 0 9993

TLE line 2: 2 35668 74.0449 224.9926 0083189 330.6481 29.0026 14.63977041876132

Live tracking on map

Real-time ground track for satellite COSMOS 2251 DEB.

In-orbit conjunctions

A list of the most updated potential collisions computed for object COSMOS 2251 DEB.

Target Orbit TCA Probability of collision Miss distance Type
CZ-6A DEB LEO 2025-07-17 18:40:58 0.0001552404 391.0 (m) DEBRIS
CZ-6A DEB LEO 2024-11-07 08:21:53 0.0001212024 838.0 (m) DEBRIS

Associated space launch

Military communications satellite. Destroyed in a collision with Iridium 33.

COSMOS 2251 DEB was lifted into orbit during the mission ‘Kosmos-3M | Strela-2M 51’, on board a Kosmos-3M space rocket.

The launch took place on June 16, 1993, 4:17 a.m. from 132/1 (132L).

For more information about the launch, click the button.

Launch to space Kosmos-3M | Strela-2M 51
Kosmos-3M | Strela-2M 51

Agency: N/A

Status: Launch Successful

Launch date: June 16, 1993, 4:17 a.m. UTC

Rocket: Kosmos-3M

Launch pad: 132/1 (132L)

Location: Plesetsk Cosmodrome, Russian Federation

...

Latest news about this satellite

There are no fresh news available about this satellite. Check back as we update our databases every day.


Newsletter sign-up

Weekly statistics, charts and insights to help you stay on top of the space industry.